owner,sensor,date,latitude,longitude,vertical_datum,wind_speed,wind_to_direction,wind_speed_of_gust,qcFlag 
TABS,ioos:station:wmo:42043:1,2011-06-01T00:00:00Z,28.9818,-94.9186,4.0,6.782130934,129.6760997,7.98,'11111222,11111222,11111222' 
TABS,ioos:station:wmo:42043:1,2011-06-01T00:30:00Z,28.9818,-94.9186,4.0,6.255445628,132.7977227,7.4,'11111222,11111222,11111222' 
TABS,ioos:station:wmo:42043:1,2011-06-01T01:00:00Z,28.9818,-94.9186,4.0,5.411478541,141.0759259,6.86,'11111222,11111222,11111222' 
TABS,ioos:station:wmo:42043:1,2011-06-01T01:30:00Z,28.9818,-94.9186,4.0,5.34065539,138.3400406,6.64,'11111222,11111222,11111222' 
TABS,ioos:station:wmo:42043:1,2011-06-01T02:00:00Z,28.9818,-94.9186,4.0,5.608787748,142.1701126,6.69,'11111222,11111222,11111222' 
TABS,ioos:station:wmo:42043:1,2011-06-01T02:30:00Z,28.9818,-94.9186,4.0,5.552368864,143.7908383,6.82,'11111222,11111222,11111222' 
TABS,ioos:station:wmo:42043:1,2011-06-01T03:00:00Z,28.9818,-94.9186,4.0,5.59270954,139.9323916,6.81,'11111222,11111222,11111222' 
TABS,ioos:station:wmo:42043:1,2011-06-01T03:30:00Z,28.9818,-94.9186,4.0,5.413658652,144.5487376,6.63,'11111222,11111222,11111222' 
TABS,ioos:station:wmo:42043:1,2011-06-01T04:00:00Z,28.9818,-94.9186,4.0,5.198499784,147.4107498,6.38,'11111222,11111222,11111222' 
TABS,ioos:station:wmo:42043:1,2011-06-01T04:30:00Z,28.9818,-94.9186,4.0,5.741228092,146.005755,6.67,'11111222,11111222,11111222' 
TABS,ioos:station:wmo:42043:1,2011-06-01T05:00:00Z,28.9818,-94.9186,4.0,5.495316187,147.4091453,6.69,'11111222,11111222,11111222' 
TABS,ioos:station:wmo:42043:1,2011-06-01T05:30:00Z,28.9818,-94.9186,4.0,5.193081937,152.3496457,6.53,'11111222,11111222,11111222' 
TABS,ioos:station:wmo:42043:1,2011-06-01T06:00:00Z,28.9818,-94.9186,4.0,3.884906691,174.9793759,5.17,'11111222,11111222,11111222' 
TABS,ioos:station:wmo:42043:1,2011-06-01T06:30:00Z,28.9818,-94.9186,4.0,3.952973564,162.0236601,5.1,'11111222,11111222,11111222' 
TABS,ioos:station:wmo:42043:1,2011-06-01T07:00:00Z,28.9818,-94.9186,4.0,3.908759394,162.1215557,4.98,'11111222,11111222,11111222' 
TABS,ioos:station:wmo:42043:1,2011-06-01T07:30:00Z,28.9818,-94.9186,4.0,4.051777388,153.6249414,5.25,'11111222,11111222,11111222' 
TABS,ioos:station:wmo:42043:1,2011-06-01T08:00:00Z,28.9818,-94.9186,4.0,3.654722972,152.1030047,4.68,'11111222,11111222,11111222' 
TABS,ioos:station:wmo:42043:1,2011-06-01T08:30:00Z,28.9818,-94.9186,4.0,3.09769269,157.4088541,4.37,'11111222,11111222,11111222' 
TABS,ioos:station:wmo:42043:1,2011-06-01T09:00:00Z,28.9818,-94.9186,4.0,2.967102964,164.5588283,4.21,'11111222,11111222,11111222' 
TABS,ioos:station:wmo:42043:1,2011-06-01T09:30:00Z,28.9818,-94.9186,4.0,2.524202844,155.6690254,3.66,'11111222,11111222,11111222' 
TABS,ioos:station:wmo:42043:1,2011-06-01T10:00:00Z,28.9818,-94.9186,4.0,2.303605869,140.9908964,3.31,'11111222,11111222,11111222' 
TABS,ioos:station:wmo:42043:1,2011-06-01T10:30:00Z,28.9818,-94.9186,4.0,1.180677771,141.1889172,2.06,'11111222,11111222,11111222' 
TABS,ioos:station:wmo:42043:1,2011-06-01T11:00:00Z,28.9818,-94.9186,4.0,1.567801008,60.16410975,2.39,'11111222,11111222,11111222' 
TABS,ioos:station:wmo:42043:1,2011-06-01T11:30:00Z,28.9818,-94.9186,4.0,1.691981087,57.06096556,2.37,'11111222,11111222,11111222' 
TABS,ioos:station:wmo:42043:1,2011-06-01T12:00:00Z,28.9818,-94.9186,4.0,1.731848723,61.3627828,2.65,'11111222,11111222,11111222' 
TABS,ioos:station:wmo:42043:1,2011-06-01T12:30:00Z,28.9818,-94.9186,4.0,1.804244994,47.02104453,2.62,'11111222,11111222,11111222' 
TABS,ioos:station:wmo:42043:1,2011-06-01T13:00:00Z,28.9818,-94.9186,4.0,2.284053414,44.46754192,3.08,'11111222,11111222,11111222' 
TABS,ioos:station:wmo:42043:1,2011-06-01T13:30:00Z,28.9818,-94.9186,4.0,3.079756484,38.80478002,4.24,'11111222,11111222,11111222' 
TABS,ioos:station:wmo:42043:1,2011-06-01T14:00:00Z,28.9818,-94.9186,4.0,3.819031291,46.06059352,4.91,'11111222,11111222,11111222' 
TABS,ioos:station:wmo:42043:1,2011-06-01T14:30:00Z,28.9818,-94.9186,4.0,4.307435432,50.84128952,5.12,'11111222,11111222,11111222' 
TABS,ioos:station:wmo:42043:1,2011-06-01T15:00:00Z,28.9818,-94.9186,4.0,4.73321244,60.51001355,6.26,'11111222,11111222,11111222' 
TABS,ioos:station:wmo:42043:1,2011-06-01T15:30:00Z,28.9818,-94.9186,4.0,5.013840843,62.56576637,6.18,'11111222,11111222,11111222' 
TABS,ioos:station:wmo:42043:1,2011-06-01T16:00:00Z,28.9818,-94.9186,4.0,4.76831207,62.25229613,5.76,'11111222,11111222,11111222' 
TABS,ioos:station:wmo:42043:1,2011-06-01T16:30:00Z,28.9818,-94.9186,4.0,4.74605099,64.6764312,5.78,'11111222,11111222,11111222' 
TABS,ioos:station:wmo:42043:1,2011-06-01T17:00:00Z,28.9818,-94.9186,4.0,4.31723291,72.61392686,5.61,'11111222,11111222,11111222' 
TABS,ioos:station:wmo:42043:1,2011-06-01T17:30:00Z,28.9818,-94.9186,4.0,4.333508971,63.55284712,5.37,'11111222,11111222,11111222' 
TABS,ioos:station:wmo:42043:1,2011-06-01T18:00:00Z,28.9818,-94.9186,4.0,5.102959925,74.19302526,6.43,'11111222,11111222,11111222' 
TABS,ioos:station:wmo:42043:1,2011-06-01T18:30:00Z,28.9818,-94.9186,4.0,4.932433476,85.93052412,5.89,'11111222,11111222,11111222' 
TABS,ioos:station:wmo:42043:1,2011-06-01T19:00:00Z,28.9818,-94.9186,4.0,4.377407909,84.88811356,5.26,'11111222,11111222,11111222' 
TABS,ioos:station:wmo:42043:1,2011-06-01T19:30:00Z,28.9818,-94.9186,4.0,4.121468185,91.5297957,5.3,'11111222,11111222,11111222' 
TABS,ioos:station:wmo:42043:1,2011-06-01T20:00:00Z,28.9818,-94.9186,4.0,3.907492802,104.6767797,4.78,'11111222,11111222,11111222' 
TABS,ioos:station:wmo:42043:1,2011-06-01T20:30:00Z,28.9818,-94.9186,4.0,3.555840266,113.53748,4.45,'11111222,11111222,11111222' 
TABS,ioos:station:wmo:42043:1,2011-06-01T21:00:00Z,28.9818,-94.9186,4.0,3.185545479,114.8760001,3.8,'11111222,11111222,11111222' 
TABS,ioos:station:wmo:42043:1,2011-06-01T21:30:00Z,28.9818,-94.9186,4.0,2.895185659,137.6600594,3.8,'11111222,11111222,11111222' 
TABS,ioos:station:wmo:42043:1,2011-06-01T22:00:00Z,28.9818,-94.9186,4.0,3.011710477,149.6890681,3.94,'11111222,11111222,11111222' 
TABS,ioos:station:wmo:42043:1,2011-06-01T22:30:00Z,28.9818,-94.9186,4.0,2.415988411,175.9652924,3.61,'11111222,11111222,11111222' 
TABS,ioos:station:wmo:42043:1,2011-06-01T23:00:00Z,28.9818,-94.9186,4.0,2.807080334,192.5511278,3.71,'11111222,11111222,11111222' 
TABS,ioos:station:wmo:42043:1,2011-06-01T23:30:00Z,28.9818,-94.9186,4.0,2.786915858,199.9305765,3.78,'11111222,11111222,11111222' 
TABS,ioos:station:wmo:42043:1,2011-06-02T00:00:00Z,28.9818,-94.9186,4.0,2.94550505,213.3664984,3.7,'11111222,11111222,11111222' 
TABS,ioos:station:wmo:42043:1,2011-06-02T00:30:00Z,28.9818,-94.9186,4.0,3.836925853,222.253711,4.8,'11111222,11111222,11111222' 
TABS,ioos:station:wmo:42043:1,2011-06-02T01:00:00Z,28.9818,-94.9186,4.0,3.622775179,220.8587242,4.35,'11111222,11111222,11111222' 
TABS,ioos:station:wmo:42043:1,2011-06-02T01:30:00Z,28.9818,-94.9186,4.0,3.257115288,222.0134752,4.17,'11111222,11111222,11111222' 
TABS,ioos:station:wmo:42043:1,2011-06-02T02:00:00Z,28.9818,-94.9186,4.0,3.643144246,223.3317717,4.77,'11111222,11111222,11111222' 
TABS,ioos:station:wmo:42043:1,2011-06-02T02:30:00Z,28.9818,-94.9186,4.0,3.334441482,222.2044494,4.03,'11111222,11111222,11111222' 
TABS,ioos:station:wmo:42043:1,2011-06-02T03:00:00Z,28.9818,-94.9186,4.0,3.344263746,217.5896064,4.13,'11111222,11111222,11111222' 
TABS,ioos:station:wmo:42043:1,2011-06-02T03:30:00Z,28.9818,-94.9186,4.0,3.51005698,216.5435545,4.8,'11111222,11111222,11111222' 
TABS,ioos:station:wmo:42043:1,2011-06-02T04:00:00Z,28.9818,-94.9186,4.0,3.517527541,220.6190776,4.49,'11111222,11111222,11111222' 
TABS,ioos:station:wmo:42043:1,2011-06-02T04:30:00Z,28.9818,-94.9186,4.0,3.28975683,223.1524993,4.19,'11111222,11111222,11111222' 
TABS,ioos:station:wmo:42043:1,2011-06-02T05:00:00Z,28.9818,-94.9186,4.0,3.408724101,224.0492275,4.27,'11111222,11111222,11111222' 
TABS,ioos:station:wmo:42043:1,2011-06-02T05:30:00Z,28.9818,-94.9186,4.0,3.838606518,214.0627812,4.68,'11111222,11111222,11111222' 
TABS,ioos:station:wmo:42043:1,2011-06-02T06:00:00Z,28.9818,-94.9186,4.0,3.412477106,222.1495642,4.32,'11111222,11111222,11111222' 
TABS,ioos:station:wmo:42043:1,2011-06-02T06:30:00Z,28.9818,-94.9186,4.0,2.915081474,235.7648741,3.62,'11111222,11111222,11111222' 
TABS,ioos:station:wmo:42043:1,2011-06-02T07:00:00Z,28.9818,-94.9186,4.0,2.640151511,229.9166597,3.41,'11111222,11111222,11111222' 
TABS,ioos:station:wmo:42043:1,2011-06-02T07:30:00Z,28.9818,-94.9186,4.0,2.44705946,234.8162457,3.11,'11111222,11111222,11111222' 
TABS,ioos:station:wmo:42043:1,2011-06-02T08:00:00Z,28.9818,-94.9186,4.0,2.832401808,253.804565,3.38,'11111222,11111222,11111222' 
TABS,ioos:station:wmo:42043:1,2011-06-02T08:30:00Z,28.9818,-94.9186,4.0,3.198280788,265.8761021,3.79,'11111222,11111222,11111222' 
TABS,ioos:station:wmo:42043:1,2011-06-02T09:00:00Z,28.9818,-94.9186,4.0,3.010415254,270.9516674,3.85,'11111222,11111222,11111222' 
TABS,ioos:station:wmo:42043:1,2011-06-02T09:30:00Z,28.9818,-94.9186,4.0,3.512406582,272.1210914,4.21,'11111222,11111222,11111222' 
TABS,ioos:station:wmo:42043:1,2011-06-02T10:00:00Z,28.9818,-94.9186,4.0,3.300378766,306.001762,4.11,'11111222,11111222,11111222' 
TABS,ioos:station:wmo:42043:1,2011-06-02T10:30:00Z,28.9818,-94.9186,4.0,3.630550922,303.4273673,4.77,'11111222,11111222,11111222' 
TABS,ioos:station:wmo:42043:1,2011-06-02T11:00:00Z,28.9818,-94.9186,4.0,3.991804103,308.5924695,5.22,'11111222,11111222,11111222' 
TABS,ioos:station:wmo:42043:1,2011-06-02T11:30:00Z,28.9818,-94.9186,4.0,4.65966737,326.8213555,5.59,'11111222,11111222,11111222' 
TABS,ioos:station:wmo:42043:1,2011-06-02T12:00:00Z,28.9818,-94.9186,4.0,4.999079915,327.5814154,6.38,'11111222,11111222,11111222' 
TABS,ioos:station:wmo:42043:1,2011-06-02T12:30:00Z,28.9818,-94.9186,4.0,4.271451744,326.9422595,5.6,'11111222,11111222,11111222' 
TABS,ioos:station:wmo:42043:1,2011-06-02T13:00:00Z,28.9818,-94.9186,4.0,4.392197628,330.6918466,5.29,'11111222,11111222,11111222' 
TABS,ioos:station:wmo:42043:1,2011-06-02T13:30:00Z,28.9818,-94.9186,4.0,4.579301257,328.3923612,5.68,'11111222,11111222,11111222' 
TABS,ioos:station:wmo:42043:1,2011-06-02T14:00:00Z,28.9818,-94.9186,4.0,4.05080239,328.9390765,5.06,'11111222,11111222,11111222' 
TABS,ioos:station:wmo:42043:1,2011-06-02T14:30:00Z,28.9818,-94.9186,4.0,4.258227331,322.5379352,5.53,'11111222,11111222,11111222' 
TABS,ioos:station:wmo:42043:1,2011-06-02T15:00:00Z,28.9818,-94.9186,4.0,3.854789229,324.28941,4.68,'11111222,11111222,11111222' 
TABS,ioos:station:wmo:42043:1,2011-06-02T15:30:00Z,28.9818,-94.9186,4.0,4.022001989,323.1869603,4.99,'11111222,11111222,11111222' 
TABS,ioos:station:wmo:42043:1,2011-06-02T16:00:00Z,28.9818,-94.9186,4.0,3.603803546,305.0570618,4.49,'11111222,11111222,11111222' 
TABS,ioos:station:wmo:42043:1,2011-06-02T16:30:00Z,28.9818,-94.9186,4.0,3.284021924,322.9206162,4.49,'11111222,11111222,11111222' 
TABS,ioos:station:wmo:42043:1,2011-06-02T17:00:00Z,28.9818,-94.9186,4.0,1.359779394,18.43469526,2.0,'11111222,11111222,11111222' 
TABS,ioos:station:wmo:42043:1,2011-06-02T17:30:00Z,28.9818,-94.9186,4.0,1.136529806,68.85353435,1.98,'11111222,11111222,11111222' 
TABS,ioos:station:wmo:42043:1,2011-06-02T18:00:00Z,28.9818,-94.9186,4.0,1.112205017,93.60888133,2.1,'11111222,11111222,11111222' 
TABS,ioos:station:wmo:42043:1,2011-06-02T18:30:00Z,28.9818,-94.9186,4.0,1.241692393,82.13052193,1.87,'11111222,11111222,11111222' 
TABS,ioos:station:wmo:42043:1,2011-06-02T19:00:00Z,28.9818,-94.9186,4.0,1.270983871,92.25499061,2.19,'11111222,11111222,11111222' 
TABS,ioos:station:wmo:42043:1,2011-06-02T19:30:00Z,28.9818,-94.9186,4.0,1.300499904,79.81297314,1.89,'11111222,11111222,11111222' 
TABS,ioos:station:wmo:42043:1,2011-06-02T20:00:00Z,28.9818,-94.9186,4.0,1.293135724,93.99132468,2.05,'11111222,11111222,11111222' 
TABS,ioos:station:wmo:42043:1,2011-06-02T20:30:00Z,28.9818,-94.9186,4.0,0.790759129,122.0825331,1.45,'11111222,11111222,11111222' 
TABS,ioos:station:wmo:42043:1,2011-06-02T21:00:00Z,28.9818,-94.9186,4.0,1.203536456,151.7317638,1.82,'11111222,11111222,11111222' 
TABS,ioos:station:wmo:42043:1,2011-06-02T21:30:00Z,28.9818,-94.9186,4.0,1.300499904,169.8136045,1.84,'11111222,11111222,11111222' 
TABS,ioos:station:wmo:42043:1,2011-06-02T22:00:00Z,28.9818,-94.9186,4.0,2.166679487,199.6895649,2.78,'11111222,11111222,11111222' 
TABS,ioos:station:wmo:42043:1,2011-06-02T22:30:00Z,28.9818,-94.9186,4.0,2.6759858,230.0026234,3.31,'11111222,11111222,11111222' 
TABS,ioos:station:wmo:42043:1,2011-06-02T23:00:00Z,28.9818,-94.9186,4.0,3.193133257,243.1942744,3.63,'11111222,11111222,11111222' 
TABS,ioos:station:wmo:42043:1,2011-06-02T23:30:00Z,28.9818,-94.9186,4.0,3.209189929,255.0111151,3.84,'11111222,11111222,11111222' 
TABS,ioos:station:wmo:42043:1,2011-06-03T00:00:00Z,28.9818,-94.9186,4.0,3.414923132,259.7101843,4.06,'11111222,11111222,11111222' 
TABS,ioos:station:wmo:42043:1,2011-06-03T00:30:00Z,28.9818,-94.9186,4.0,3.590891254,253.3313606,4.48,'11111222,11111222,11111222' 
TABS,ioos:station:wmo:42043:1,2011-06-03T01:00:00Z,28.9818,-94.9186,4.0,4.032914579,254.1717304,4.81,'11111222,11111222,11111222' 
TABS,ioos:station:wmo:42043:1,2011-06-03T01:30:00Z,28.9818,-94.9186,4.0,3.953239178,253.994917,4.81,'11111222,11111222,11111222' 
TABS,ioos:station:wmo:42043:1,2011-06-03T02:00:00Z,28.9818,-94.9186,4.0,3.596067296,242.5086695,4.58,'11111222,11111222,11111222' 
TABS,ioos:station:wmo:42043:1,2011-06-03T02:30:00Z,28.9818,-94.9186,4.0,2.612278699,244.6121531,3.24,'11111222,11111222,11111222' 
TABS,ioos:station:wmo:42043:1,2011-06-03T03:00:00Z,28.9818,-94.9186,4.0,2.437416665,175.5294001,3.0,'11111222,11111222,11111222' 
TABS,ioos:station:wmo:42043:1,2011-06-03T03:30:00Z,28.9818,-94.9186,4.0,2.442662482,159.6363877,2.93,'11111222,11111222,11111222' 
TABS,ioos:station:wmo:42043:1,2011-06-03T04:00:00Z,28.9818,-94.9186,4.0,2.892542135,150.599365,3.43,'11111222,11111222,11111222' 
TABS,ioos:station:wmo:42043:1,2011-06-03T04:30:00Z,28.9818,-94.9186,4.0,3.096837096,144.4626158,3.92,'11111222,11111222,11111222' 
TABS,ioos:station:wmo:42043:1,2011-06-03T05:00:00Z,28.9818,-94.9186,4.0,4.903977977,131.1972407,6.92,'11111222,11111222,11111222' 
TABS,ioos:station:wmo:42043:1,2011-06-03T05:30:00Z,28.9818,-94.9186,4.0,6.972201948,135.3489664,8.27,'11111222,11111222,11111222' 
TABS,ioos:station:wmo:42043:1,2011-06-03T06:00:00Z,28.9818,-94.9186,4.0,7.469009305,144.7568943,8.67,'11111222,11111222,11111222' 
TABS,ioos:station:wmo:42043:1,2011-06-03T06:30:00Z,28.9818,-94.9186,4.0,6.24606276,146.6918478,7.94,'11111222,11111222,11111222' 
TABS,ioos:station:wmo:42043:1,2011-06-03T07:00:00Z,28.9818,-94.9186,4.0,5.659257902,145.0746249,6.95,'11111222,11111222,11111222' 
TABS,ioos:station:wmo:42043:1,2011-06-03T07:30:00Z,28.9818,-94.9186,4.0,5.880042517,141.0057011,7.21,'11111222,11111222,11111222' 
TABS,ioos:station:wmo:42043:1,2011-06-03T08:00:00Z,28.9818,-94.9186,4.0,6.106422848,141.5163355,7.28,'11111222,11111222,11111222' 
TABS,ioos:station:wmo:42043:1,2011-06-03T08:30:00Z,28.9818,-94.9186,4.0,5.201096038,153.385956,6.36,'11111222,11111222,11111222' 
TABS,ioos:station:wmo:42043:1,2011-06-03T09:00:00Z,28.9818,-94.9186,4.0,5.053197008,150.0866344,6.76,'11111222,11111222,11111222' 
TABS,ioos:station:wmo:42043:1,2011-06-03T09:30:00Z,28.9818,-94.9186,4.0,5.025385557,144.4758694,6.62,'11111222,11111222,11111222' 
TABS,ioos:station:wmo:42043:1,2011-06-03T10:00:00Z,28.9818,-94.9186,4.0,5.704533285,143.9138461,6.83,'11111222,11111222,11111222' 
TABS,ioos:station:wmo:42043:1,2011-06-03T10:30:00Z,28.9818,-94.9186,4.0,5.026668877,144.0651038,6.31,'11111222,11111222,11111222' 
TABS,ioos:station:wmo:42043:1,2011-06-03T11:00:00Z,28.9818,-94.9186,4.0,5.006845314,138.1576959,6.1,'11111222,11111222,11111222' 
TABS,ioos:station:wmo:42043:1,2011-06-03T11:30:00Z,28.9818,-94.9186,4.0,5.124656086,142.2135681,6.57,'11111222,11111222,11111222' 
TABS,ioos:station:wmo:42043:1,2011-06-03T12:00:00Z,28.9818,-94.9186,4.0,5.380752735,142.1720111,6.79,'11111222,11111222,11111222' 
TABS,ioos:station:wmo:42043:1,2011-06-03T12:30:00Z,28.9818,-94.9186,4.0,5.460265561,138.1924857,6.82,'11111222,11111222,11111222' 
TABS,ioos:station:wmo:42043:1,2011-06-03T13:00:00Z,28.9818,-94.9186,4.0,4.792076794,130.9388025,5.96,'11111222,11111222,11111222' 
TABS,ioos:station:wmo:42043:1,2011-06-03T13:30:00Z,28.9818,-94.9186,4.0,5.042271314,134.1164418,6.23,'11111222,11111222,11111222' 
TABS,ioos:station:wmo:42043:1,2011-06-03T14:00:00Z,28.9818,-94.9186,4.0,5.037072563,129.4417983,6.39,'11111222,11111222,11111222' 
TABS,ioos:station:wmo:42043:1,2011-06-03T14:30:00Z,28.9818,-94.9186,4.0,5.483402229,133.0050163,6.98,'11111222,11111222,11111222' 
TABS,ioos:station:wmo:42043:1,2011-06-03T15:00:00Z,28.9818,-94.9186,4.0,5.018057393,127.1442628,6.42,'11111222,11111222,11111222' 
TABS,ioos:station:wmo:42043:1,2011-06-03T15:30:00Z,28.9818,-94.9186,4.0,5.239895037,124.6609154,6.61,'11111222,11111222,11111222' 
TABS,ioos:station:wmo:42043:1,2011-06-03T16:00:00Z,28.9818,-94.9186,4.0,5.258564443,130.1407126,6.59,'11111222,11111222,11111222' 
TABS,ioos:station:wmo:42043:1,2011-06-03T16:30:00Z,28.9818,-94.9186,4.0,5.472339536,128.5456784,6.73,'11111222,11111222,11111222' 
TABS,ioos:station:wmo:42043:1,2011-06-03T17:00:00Z,28.9818,-94.9186,4.0,5.615069011,134.1344525,7.08,'11111222,11111222,11111222' 
TABS,ioos:station:wmo:42043:1,2011-06-03T17:30:00Z,28.9818,-94.9186,4.0,5.618487341,127.6248839,7.23,'11111222,11111222,11111222' 
TABS,ioos:station:wmo:42043:1,2011-06-03T18:00:00Z,28.9818,-94.9186,4.0,5.404562887,126.0432986,6.8,'11111222,11111222,11111222' 
TABS,ioos:station:wmo:42043:1,2011-06-03T18:30:00Z,28.9818,-94.9186,4.0,5.726089416,126.5500365,6.96,'11111222,11111222,11111222' 
TABS,ioos:station:wmo:42043:1,2011-06-03T19:00:00Z,28.9818,-94.9186,4.0,5.432531638,127.6718128,6.98,'11111222,11111222,11111222' 
TABS,ioos:station:wmo:42043:1,2011-06-03T19:30:00Z,28.9818,-94.9186,4.0,6.001874707,125.4381395,7.65,'11111222,11111222,11111222' 
TABS,ioos:station:wmo:42043:1,2011-06-03T20:00:00Z,28.9818,-94.9186,4.0,5.48441428,131.3041823,6.94,'11111222,11111222,11111222' 
TABS,ioos:station:wmo:42043:1,2011-06-03T20:30:00Z,28.9818,-94.9186,4.0,5.185643644,133.2030884,6.33,'11111222,11111222,11111222' 
TABS,ioos:station:wmo:42043:1,2011-06-03T21:00:00Z,28.9818,-94.9186,4.0,5.329183802,131.1963637,6.89,'11111222,11111222,11111222' 
TABS,ioos:station:wmo:42043:1,2011-06-03T21:30:00Z,28.9818,-94.9186,4.0,4.848762729,125.8539558,6.32,'11111222,11111222,11111222' 
TABS,ioos:station:wmo:42043:1,2011-06-03T22:00:00Z,28.9818,-94.9186,4.0,4.922936116,127.9876002,6.14,'11111222,11111222,11111222' 
TABS,ioos:station:wmo:42043:1,2011-06-03T22:30:00Z,28.9818,-94.9186,4.0,5.021762639,131.6907132,6.26,'11111222,11111222,11111222' 
TABS,ioos:station:wmo:42043:1,2011-06-03T23:00:00Z,28.9818,-94.9186,4.0,5.320244355,121.629015,6.78,'11111222,11111222,11111222' 
TABS,ioos:station:wmo:42043:1,2011-06-03T23:30:00Z,28.9818,-94.9186,4.0,4.41969456,135.6420001,5.66,'11111222,11111222,11111222' 
TABS,ioos:station:wmo:42043:1,2011-06-04T00:00:00Z,28.9818,-94.9186,4.0,4.638124621,127.2902446,6.11,'11111222,11111222,11111222' 
TABS,ioos:station:wmo:42043:1,2011-06-04T00:30:00Z,28.9818,-94.9186,4.0,5.154027551,122.6420595,6.75,'11111222,11111222,11111222' 
TABS,ioos:station:wmo:42043:1,2011-06-04T01:00:00Z,28.9818,-94.9186,4.0,5.808003099,126.8110427,7.38,'11111222,11111222,11111222' 
TABS,ioos:station:wmo:42043:1,2011-06-04T01:30:00Z,28.9818,-94.9186,4.0,6.018778946,123.135953,7.32,'11111222,11111222,11111222' 
TABS,ioos:station:wmo:42043:1,2011-06-04T02:00:00Z,28.9818,-94.9186,4.0,5.855339444,129.3172753,7.48,'11111222,11111222,11111222' 
TABS,ioos:station:wmo:42043:1,2011-06-04T02:30:00Z,28.9818,-94.9186,4.0,5.830823269,129.6423413,7.41,'11111222,11111222,11111222' 
TABS,ioos:station:wmo:42043:1,2011-06-04T03:00:00Z,28.9818,-94.9186,4.0,5.528046671,132.4343659,7.0,'11111222,11111222,11111222' 
TABS,ioos:station:wmo:42043:1,2011-06-04T03:30:00Z,28.9818,-94.9186,4.0,5.642384248,132.1988738,7.11,'11111222,11111222,11111222' 
TABS,ioos:station:wmo:42043:1,2011-06-04T04:00:00Z,28.9818,-94.9186,4.0,5.729310604,136.4147356,7.47,'11111222,11111222,11111222' 
TABS,ioos:station:wmo:42043:1,2011-06-04T04:30:00Z,28.9818,-94.9186,4.0,5.742482042,129.9847476,7.23,'11111222,11111222,11111222' 
TABS,ioos:station:wmo:42043:1,2011-06-04T05:00:00Z,28.9818,-94.9186,4.0,5.954443719,135.8168254,7.68,'11111222,11111222,11111222' 
TABS,ioos:station:wmo:42043:1,2011-06-04T05:30:00Z,28.9818,-94.9186,4.0,5.706592679,141.4032136,7.28,'11111222,11111222,11111222' 
TABS,ioos:station:wmo:42043:1,2011-06-04T06:00:00Z,28.9818,-94.9186,4.0,5.554466671,142.3876811,7.1,'11111222,11111222,11111222' 
TABS,ioos:station:wmo:42043:1,2011-06-04T06:30:00Z,28.9818,-94.9186,4.0,5.034769111,144.1318896,6.61,'11111222,11111222,11111222' 
TABS,ioos:station:wmo:42043:1,2011-06-04T07:00:00Z,28.9818,-94.9186,4.0,5.555339774,146.453246,7.2,'11111222,11111222,11111222' 
TABS,ioos:station:wmo:42043:1,2011-06-04T07:30:00Z,28.9818,-94.9186,4.0,5.620293587,148.459568,7.1,'11111222,11111222,11111222' 
TABS,ioos:station:wmo:42043:1,2011-06-04T08:00:00Z,28.9818,-94.9186,4.0,5.4055712,146.1632347,6.73,'11111222,11111222,11111222' 
TABS,ioos:station:wmo:42043:1,2011-06-04T08:30:00Z,28.9818,-94.9186,4.0,5.335484983,139.7134988,6.91,'11111222,11111222,11111222' 
TABS,ioos:station:wmo:42043:1,2011-06-04T09:00:00Z,28.9818,-94.9186,4.0,5.621743502,144.5573976,7.17,'11111222,11111222,11111222' 
TABS,ioos:station:wmo:42043:1,2011-06-04T09:30:00Z,28.9818,-94.9186,4.0,4.96448386,138.1846652,6.62,'11111222,11111222,11111222' 
TABS,ioos:station:wmo:42043:1,2011-06-04T10:00:00Z,28.9818,-94.9186,4.0,4.262065227,132.147411,5.68,'11111222,11111222,11111222' 
TABS,ioos:station:wmo:42043:1,2011-06-04T10:30:00Z,28.9818,-94.9186,4.0,3.69134122,134.3417741,5.03,'11111222,11111222,11111222' 
TABS,ioos:station:wmo:42043:1,2011-06-04T11:00:00Z,28.9818,-94.9186,4.0,3.077823907,113.1500701,4.24,'11111222,11111222,11111222' 
TABS,ioos:station:wmo:42043:1,2011-06-04T11:30:00Z,28.9818,-94.9186,4.0,2.765085894,114.8044481,3.77,'11111222,11111222,11111222' 
TABS,ioos:station:wmo:42043:1,2011-06-04T12:00:00Z,28.9818,-94.9186,4.0,2.350340401,89.02442822,3.54,'11111222,11111222,11111222' 
TABS,ioos:station:wmo:42043:1,2011-06-04T12:30:00Z,28.9818,-94.9186,4.0,2.567664308,62.13717525,4.0,'11111222,11111222,11111222' 
TABS,ioos:station:wmo:42043:1,2011-06-04T13:00:00Z,28.9818,-94.9186,4.0,3.550774563,75.65028059,4.57,'11111222,11111222,11111222' 
TABS,ioos:station:wmo:42043:1,2011-06-04T13:30:00Z,28.9818,-94.9186,4.0,3.050409809,89.06039033,4.42,'11111222,11111222,11111222' 
TABS,ioos:station:wmo:42043:1,2011-06-04T14:00:00Z,28.9818,-94.9186,4.0,3.763841123,87.41084747,5.02,'11111222,11111222,11111222' 
TABS,ioos:station:wmo:42043:1,2011-06-04T14:30:00Z,28.9818,-94.9186,4.0,3.520056818,90.32596085,4.76,'11111222,11111222,11111222' 
TABS,ioos:station:wmo:42043:1,2011-06-04T15:00:00Z,28.9818,-94.9186,4.0,4.291165343,88.66425807,5.85,'11111222,11111222,11111222' 
TABS,ioos:station:wmo:42043:1,2011-06-04T15:30:00Z,28.9818,-94.9186,4.0,4.677798628,93.30933354,5.97,'11111222,11111222,11111222' 
TABS,ioos:station:wmo:42043:1,2011-06-04T16:00:00Z,28.9818,-94.9186,4.0,4.218684629,97.76556878,5.31,'11111222,11111222,11111222' 
TABS,ioos:station:wmo:42043:1,2011-06-04T16:30:00Z,28.9818,-94.9186,4.0,4.063422203,94.65866413,5.21,'11111222,11111222,11111222' 
TABS,ioos:station:wmo:42043:1,2011-06-04T17:00:00Z,28.9818,-94.9186,4.0,4.187278352,84.79277407,5.9,'11111222,11111222,11111222' 
TABS,ioos:station:wmo:42043:1,2011-06-04T17:30:00Z,28.9818,-94.9186,4.0,4.633141483,79.80536593,5.95,'11111222,11111222,11111222' 
TABS,ioos:station:wmo:42043:1,2011-06-04T18:00:00Z,28.9818,-94.9186,4.0,4.700010638,90.12232636,5.81,'11111222,11111222,11111222' 
TABS,ioos:station:wmo:42043:1,2011-06-04T18:30:00Z,28.9818,-94.9186,4.0,5.064780351,92.48996802,6.45,'11111222,11111222,11111222' 